Regional Weather Roundup
Issued by NWS

Home | Current Version | Previous Version | Graphics & Text | Print | Product List | Glossary On
Versions: 1 2 3 4 5 6 7 8 9 10 11 12 13 14 15 16 17 18 19 20 21 22 23 24 25 26 27 28 29 30 31 32 33 34 35 36 37 38 39 40 41 42 43 44 45 46 47 48 49 50
804
ASUS43 KIND 141709
RWRIN

WEATHER ROUNDUP FOR INDIANA
NATIONAL WEATHER SERVICE INDIANAPOLIS IN
1200 PM EST SUN FEB 14 2016

NOTE: "FAIR" INDICATES FEW OR NO CLOUDS BELOW 12,000 FEET WITH NO
SIGNIFICANT WEATHER AND/OR OBSTRUCTIONS TO VISIBILITY.

* - STATION DOES NOT REPORT WEATHER SUCH AS PRECIPITATION OR FOG.

+ - STATION NOT QUALITY CONTROLLED BY THE NATIONAL WEATHER SERVICE.
    USE DATA WITH CAUTION...ESPECIALLY DEWPOINT AND RELATIVE
    HUMIDITY OBSERVATIONS.

INZ001>003-010>013-019-020-141800-
NORTHWEST INDIANA

CITY           SKY/WX    TMP DP  RH WIND       PRES   REMARKS
GARY /AIRPORT/ CLOUDY    19   1  45 SE17      30.31S WCI   4
KNOX *+        CLOUDY    18   3  53 SE15      30.30F WCI   3
LA PORTE +     CLOUDY    16   6  64 SE15      30.30F WCI   1
MICHIGAN CITY+ CLOUDY    16   3  57 SE7G17    30.30F WCI   6
MONTICELLO +   CLOUDY    18   1  46 SE8       30.29F WCI   8
RENSSELAER +   CLOUDY    19   1  45 SE13      30.29R WCI   7
VALPARAISO     CLOUDY    16   4  59 SE12      30.30F WCI   3

$$

LMZ046-743>745-141800-
SOUTHERN LAKE MICHIGAN

STATION/POSITION TIME  TEMP    WIND        PRES    WAVE
                       AIR SEA DIR/SP/G            HT
                 (UTC) (F)     (DEG/KT/KT) (MB)    (FT)
BURNS HARBOR     1600   15     140/ 13/ 19 1026.4F
MICHIGAN CITY    1600   13     100/ 11/ 14   N/A

$$

INZ004-005-014>016-021>024-141800-
NORTH CENTRAL INDIANA

CITY           SKY/WX    TMP DP  RH WIND       PRES   REMARKS
ELKHART        CLOUDY    16   3  57 MISG        N/A
GOSHEN         CLOUDY    15   3  59 S21       30.34R WCI  -2
LOGANSPORT +   CLOUDY    19   1  45 SE17      30.30F WCI   4
PERU/GRISSOM   CLOUDY    17   5  59 SE16      30.28R WCI   2
ROCHESTER +    CLOUDY    19   3  49 SE14      30.31F WCI   6
SOUTH BEND     CLOUDY    13   3  64 SE17      30.32R WCI  -4
WARSAW +       CLOUDY    18   5  57 SE7G17    30.32S WCI   8

$$

INZ006>009-017-018-025>027-141800-
NORTHEAST INDIANA

CITY           SKY/WX    TMP DP  RH WIND       PRES   REMARKS
ANGOLA *+      SUNNY     12   3  67 SE14      30.31F WCI  -3
AUBURN +       CLOUDY    19   5  53 SE6       30.35S WCI  11
FORT WAYNE     CLOUDY    18   5  57 SE14      30.36F WCI   4
HUNTINGTON +   CLOUDY    15   0  53 SE13      30.34R WCI   1

$$

INZ028-029-035-036-043>045-051>053-141800-
WEST CENTRAL INDIANA

CITY           SKY/WX    TMP DP  RH WIND       PRES   REMARKS
CRAWFORDSVL +  CLOUDY    17   7  66 SE15      30.26F WCI   2
GREENCASTLE +  CLOUDY    19   7  58 SE12      30.25F WCI   7
LAFAYETTE      CLOUDY    17   7  64 SE13      30.29S WCI   4
TERRE HAUTE    LGT SNOW  20  13  74 SE12      30.27F WCI   8

$$

INZ030>032-037>040-046>048-054>057-064-065-141800-
CENTRAL INDIANA

CITY           SKY/WX    TMP DP  RH WIND       PRES   REMARKS
FRANKFORT +    CLOUDY    19   2  49 SE18      30.30F WCI   3
GREENWOOD *+   CLOUDY    19  12  73 SE12G20   30.30F WCI   7
INDIANAPOLIS   FLURRIES  18   9  68 SE18      30.27F WCI   2
-EAGLE CREEK   CLOUDY    18   9  68 SE14G22   30.29S WCI   4
KOKOMO *+      CLOUDY    18   5  57 SE17      30.30F WCI   2
MARION +       CLOUDY    16  -2  45 SE15      30.32S WCI   1
MT COMFORT *+  CLOUDY    18   9  68 SE12G18   30.32S WCI   5
SHELBYVILLE    CLOUDY    19   9  65 SE17      30.31S WCI   4
ZIONSVILLE +   CLOUDY    17   8  68 SE14      30.31R WCI   3

$$

INZ033-034-041-042-049-050-058-059-141800-
EAST CENTRAL INDIANA

CITY           SKY/WX    TMP DP  RH WIND       PRES   REMARKS
MUNCIE         CLOUDY    18   5  57 SE10      30.31F WCI   6

$$

INZ060-061-067>069-081>083-085>088-141800-
SOUTHWEST INDIANA

CITY           SKY/WX    TMP DP  RH WIND       PRES   REMARKS
EVANSVILLE     LGT SNOW  24  18  77 SE12      30.24F VSB 3/4 WCI  13
HUNTINGBURG *+ CLOUDY    21  12  68 SE16G24   30.25F WCI   7
WASHINGTON +   FLURRIES  22  12  65 SE14      30.25F WCI   9

$$

INZ062-063-066-070>080-084-089>092-141800-
SOUTH CENTRAL AND SOUTHEAST INDIANA

CITY           SKY/WX    TMP DP  RH WIND       PRES   REMARKS
BEDFORD +      CLOUDY    19  14  79 SE9       30.25F WCI   9
BLOOMINGTON    CLOUDY    20  11  68 SE13      30.24F WCI   7
MADISON *+     CLOUDY    19  12  73 SE10      30.32F WCI   8
NORTH VERNON + CLOUDY    19  10  68 E3G17     30.33F
SEYMOUR +      CLOUDY    21  12  68 SE13      30.30F WCI   9

$$





USA.gov is the U.S. government's official web portal to all federal, state and local government web resources and services.